469  
ASUS44 KMOB 301412  
RWRMOB  
REGIONAL WEATHER ROUNDUP  
NATIONAL WEATHER SERVICE MOBILE AL  
900 AM CDT SUN APR 30 2017  
 
NOTE: "FAIR" INDICATES FEW OR NO CLOUDS BELOW 12,000 FEET WITH NO  
SIGNIFICANT WEATHER AND/OR S TO VISIBILITY
.  
 
* THESE STATIONS ARE PART OF THE UNIVERSITY OF SOUTH ALABAMA  
MESONET AND ARE NOT UNDER NWS OR FAA QUALITY CONTROL.
 
 
ALZ061>064-301500-  
COASTAL ALABAMA  
 
CITY SKY/WX TMP DP RH WIND PRES REMARKS
 
MOBILE REG APT CLOUDY 77 71 82 SE16G25 29.93R  
BROOKLEY FIELD CLOUDY 78 74 87 SE17G26 29.94R  
USA CAMPUS* N/A 77 72 83 CALM 29.93S  
DOG RIVER* N/A 77 73 88 SE8 30.67R  
 
 
CITY SKY/WX TMP DP RH WIND PRES REMARKS
 
GULF SHORES CLOUDY 77 76 98 SE16G25 29.95R  
 

 
 
ALZ051>060-301500-  
INTERIOR SOUTHWEST AND SOUTH CENTRAL ALABAMA  
 
CITY SKY/WX TMP DP RH WIND PRES REMARKS
 
GREENVILLE CLOUDY 76 67 73 S9G24 29.99  
EVERGREEN LGT RAIN 80 68 66 S18G32 29.97F  
ATMORE* N/A 79 70 73 SE17 29.98R  
ANDALUSIA/OPP CLOUDY 79 69 71 S10G17 30.00S  
ANDALUSIA* N/A 77 70 78 S16 30.01R  
FLORALA APT PTSUNNY 78 67 68 S10G26 30.01F  
FLORALA* N/A 77 68 73 E6 30.70F  
 

 
 
FLZ001>006-301500-  
WESTERN FLORIDA PANHANDLE  
 
CITY SKY/WX TMP DP RH WIND PRES REMARKS
 
PENSACOLA CLOUDY 79 72 79 SE23G31 29.96S  
NAS PENSACOLA CLOUDY 79 72 79 SE22G30 29.94R  
MILTON LGT RAIN 78 71 79 S24 29.97S  
WHTNG S FIELD CLOUDY 81 72 74 S22G31 29.97S  
 
 
CITY SKY/WX TMP DP RH WIND PRES REMARKS
 
JAY* N/A 79 68 69 SE17 29.97R  
DUKE FIELD CLOUDY 77 70 78 SE18G25 29.98S  
CRESTVIEW PTSUNNY 78 67 68 S14G35 30.01R  
VALPARAISO PTSUNNY 78 71 79 SE22G28 29.99S  
DESTIN CLOUDY 80 77 90 SE17G29 29.99S  
 

 
 
MSZ076-079-301500-  
INTERIOR SOUTHEAST MISSISSIPPI  
 
CITY SKY/WX TMP DP RH WIND PRES REMARKS
 
LEAKESVILLE* NOT AVBL  
AGRICOLA* N/A 77 72 83 S2 29.92R  
 

 
 
MARINE OBSERVATIONS  
 
STATION/POSITION TIME TEMP WIND PRES WAVE
 
AIR SEA DIR/SP/G HT/PER  
(UTC) (F) (DEG/KT/KT) (MB) (FT/S)  
PASCAGOULA 1348 78 150/ 17/ 23 1012.8R  
PETIT BOIS ISLND 1348 77 150/ 18/ 24 1013.5R  
GRAND BAY 1230 77 150/ 23 1012.0S  
KATRINA CUT 1330 77 160/ 21 1013.2R  
CEDAR POINT 1330 77 160/ 19 1013.9R  
E DAUPHIN ISLAND 1300 76 140/ 25/ 28 1011.9F  
MIDDLE BAY LIGHT 1330 77 140/ 26 1014.2R  
USCG MOBILE BAY 1348 77 77 170/ 15/ 22 1014.3R  
STATE DOCKS 1348 77 77 1014.1R  
MEAHER PARK 1330 77 150/ 17 1013.5R  
FORT MORGAN 1348 77 150/ 22/ 25 N/A  
12 S ORANGE BCH 1250 76 75 140/ 21/ 27 1012.5S 7/ 6  
PENSACOLA BAY 1348 77 76 170/ 13/ 18 1014.4F  
64 S DAUPHIN ISL 1310 77 76 140/ 23/ 29 1011.5  
67 S FORT MORGAN 1230 76 160/ 27 1012.5  
 

 
 
SELECTED LOCATIONS ACROSS THE REGION  
 
CITY SKY/WX TMP DP RH WIND PRES REMARKS
 
NEW ORLEANS CLOUDY 80 74 81 SE22G32 29.83R  
GULFPORT CLOUDY 79 74 84 SE17G30 29.89R  
PASCAGOULA AP CLOUDY 78 72 81 SE17G26 29.92R  
PASCAGOULA* NOT AVBL  
HATTIESBURG LGT RAIN 78 71 79 S12G23 29.89R  
LAUREL CLOUDY 77 70 78 S15G24 29.90R  
MERIDIAN CLOUDY 75 69 81 S13G21 29.89R  
JACKSON TSTM 74 71 91 S22G35 29.83R FOG  
MONTGOMERY CLOUDY 78 66 66 SE12G21 29.99F  
TROY CLOUDY 74 69 85 SE15G21 30.03S  
ASHFORD* N/A 77 70 78 S16 30.01R  
DOTHAN MOSUNNY 78 70 76 S16G26 30.07F  
PANAMA CITY CLOUDY 79 70 74 SE17G29 30.02S HAZE  
 

 
 
 
 
CLICK HERE TO GO TO PREVIOUS BULLETINS.

The Nexlab AL Page
The Nexlab FL Page
The Nexlab MS Page Main Text Page